Zurück zum Katalog

SL-16 DEB

AktivLEO
NORAD 39907·DEBRIS·🇷🇺 Russia

Gestartet Mar 26, 1993 von Baikonur Cosmodrome

Loading…

Nächste Überflüge (nächste 24 Stunden)

TLE

AktuellSource: Space-Track

Epoche: Sep 13, 2026, 19:01 UTC

1 39907U 93016CH  26256.79251813  .00000204  00000-0  18891-3 0  9990
2 39907  70.9911 278.6003 0128337  35.3347 325.6183 13.89822509624076

Verfolge SL-16 DEB in Echtzeit mit AllMySat

Download on the App Store